Location: ?????????
(44.2517°N, 135.2292°E)
Time: 07:51:38
(UTC+00:00)

Timation 1 Rocket - Pass Details

Date: 19 May 2025
Orbit: 895 x 909 km, 70.0° (Epoch: 23 June)

Event Time Altitude Azimuth Distance (km) Brightness Sun altitude
Exits shadow 13:12:13 44° 151° (SSE) 1,227 4.5 -21.6°
Maximum altitude 13:13:33 53° 110° (ESE) 1,102 4.5 -21.7°
Drops below altitude 10° 13:19:20 10° 36° (NE) 2,591 7.1 -22.2°
Sets 13:21:53 0° 31° (NNE) 3,538 7.9 -22.4°
